Weather History for KBHK - November, 2012

Change the Weather History Date:

Monday, November 5, 2012

  Actual Average (KDIK) Record (KDIK)
Temperature  
Mean Temperature 44 °F 35 °F  
Max Temperature 61 °F 46 °F 76 °F (1975)
Min Temperature 28 °F 24 °F -8 °F (1935)
Degree Days  
Heating Degree Days 20 30  
Month to date heating degree days 146  
Since 1 July heating degree days 1157  
Cooling Degree Days 0 0  
Month to date cooling degree days 0  
Year to date cooling degree days 419  
Moisture  
Dew Point 33 °F    
Average Humidity 74    
Maximum Humidity 96    
Minimum Humidity 44    
Precipitation  
Precipitation 0.04 in 0.02 in 0.86 in (2008)
Month to date precipitation 0.12  
Year to date precipitation 15.11  
Sea Level Pressure  
Sea Level Pressure 30.07 in    
Wind  
Wind Speed 7 mph (West)    
Max Wind Speed 28 mph    
Max Gust Speed 40 mph    
T = Trace of Precipitation, MM = Missing Value Source: NWS Daily Summary

Daily Weather History Graph

Daily Weather History Graph

Search for Another Location

Airport or City:

Trip Planner

Search our weather history database for the weather conditions in past years. The results will help you decide how hot, cold, wet, or windy it might be!

Date:

Astronomy

Nov. 05, 2012 Rise Set
Actual Time 6:44 AM MST 4:35 PM MST
Civil Twilight 6:13 AM MST 5:07 PM MST
Nautical Twilight 5:37 AM MST 5:43 PM MST
Astronomical Twilight 5:02 AM MST 6:18 PM MST
Moon 10:16 PM MST (11/5) 12:06 PM MST (11/5)
Length of Visible Light 10h 54m
Length of Day
9h 50m
Waning Gibbous, 62% of the Moon is Illuminated
Nov 5
Waning Gibbous
Nov 6
Last Quarter
Nov 13
New
Nov 20
First Quarter
Nov 28
Full

Hourly Weather History & Observations

Time (MST) Temp. Windchill Dew Point Humidity Pressure Visibility Wind Dir Wind Speed Gust Speed Precip Events Conditions
12:51 AM 32.0 °F 28.7 °F 30.0 °F 92% 30.25 in - South 3.5 mph - N/A   Overcast
1:51 AM 30.9 °F - 28.0 °F 89% 30.23 in - Calm Calm - N/A   Overcast
2:41 AM 28.4 °F 24.6 °F 24.8 °F 86% 30.17 in - ESE 3.5 mph - N/A   Scattered Clouds
2:51 AM 28.0 °F 22.8 °F 25.0 °F 88% 30.22 in - SE 4.6 mph - N/A   Partly Cloudy
3:17 AM 28.4 °F - 26.6 °F 93% 30.16 in - Calm Calm - N/A   Mostly Cloudy
3:39 AM 28.4 °F - 26.6 °F 93% 30.15 in - Calm Calm - N/A   Mostly Cloudy
3:51 AM 28.9 °F 23.9 °F 26.1 °F 89% 30.19 in - SE 4.6 mph - N/A   Scattered Clouds
4:51 AM 30.0 °F - 26.1 °F 85% 30.18 in - Calm Calm - N/A   Overcast
5:51 AM 30.9 °F 25.2 °F 27.0 °F 85% 30.15 in - East 5.8 mph - N/A   Overcast
6:51 AM 30.9 °F 24.3 °F 28.0 °F 89% 30.13 in - SE 6.9 mph - N/A   Overcast
7:51 AM 32.0 °F 28.7 °F 30.9 °F 96% 30.12 in - East 3.5 mph - N/A   Mostly Cloudy
8:51 AM 37.9 °F 34.4 °F 35.1 °F 89% 30.07 in - ESE 4.6 mph - N/A   Partly Cloudy
9:51 AM 48.9 °F - 39.0 °F 69% 30.04 in - WSW 4.6 mph - N/A   Mostly Cloudy
10:51 AM 54.0 °F - 37.9 °F 55% 30.00 in - WSW 15.0 mph 19.6 mph N/A   Clear
11:51 AM 55.9 °F - 37.9 °F 51% 29.96 in - WSW 16.1 mph 21.9 mph N/A   Unknown
12:51 PM 59.0 °F - 37.9 °F 46% 29.91 in - West 19.6 mph - N/A   Mostly Cloudy
1:51 PM 61.0 °F - 39.0 °F 44% 29.88 in - West 11.5 mph - N/A   Mostly Cloudy
2:51 PM 60.1 °F - 37.9 °F 44% 29.89 in - West 17.3 mph 25.3 mph N/A   Clear
3:51 PM 57.0 °F - 39.0 °F 51% 29.90 in - WNW 9.2 mph - N/A   Partly Cloudy
4:14 PM 57.2 °F - 42.8 °F 59% 29.92 in - NW 27.6 mph 40.3 mph 0.00 in Rain Light Rain
4:51 PM 54.0 °F - 45.0 °F 72% 29.96 in - NW 21.9 mph 31.1 mph 0.02 in Rain Light Rain
5:51 PM 55.0 °F - 39.0 °F 55% 29.99 in - NW 26.5 mph 35.7 mph 0.02 in   Mostly Cloudy
6:51 PM 44.1 °F 36.8 °F 35.1 °F 71% 30.05 in - North 16.1 mph 32.2 mph 0.00 in   Scattered Clouds
7:51 PM 41.0 °F 35.8 °F 30.9 °F 67% 30.09 in - WNW 8.1 mph - N/A   Clear
8:51 PM 39.0 °F 31.4 °F 30.9 °F 73% 30.10 in - NW 12.7 mph - N/A   Clear
9:51 PM 36.0 °F 27.1 °F 30.0 °F 79% 30.11 in - West 13.8 mph - N/A   Clear
10:51 PM 34.0 °F 27.2 °F 28.9 °F 82% 30.13 in - WNW 8.1 mph - N/A   Clear
11:51 PM 34.0 °F 28.0 °F 28.9 °F 82% 30.14 in - WNW 6.9 mph - N/A   Overcast